Regional Weather Roundup
Issued by NWS Green Bay, WI

Home | Current Version | Previous Version | Graphics & Text | Print | Product List | Glossary Off
Versions: 1 2 3 4 5 6 7 8 9 10 11 12 13 14 15 16 17 18 19 20 21 22 23 24 25 26 27 28 29 30 31 32 33 34 35 36 37 38 39 40 41 42 43 44 45 46 47 48 49 50

000
ASUS43 KGRB 230610
RWRGRB

NORTH-CENTRAL AND NORTHEAST WISCONSIN REGIONAL WEATHER ROUNDUP
NATIONAL WEATHER SERVICE GREEN BAY WI
100 AM CDT WED JUL 23 2014

WIZ005-009-010>012-018-019-230700-
NORTH CENTRAL WISCONSIN

CITY           SKY/WX    TMP DP  RH WIND       PRES   REMARKS
IRONWOOD       NOT AVBL
MANITOWISH WTR FOG       51  51 100 CALM      30.16R VSB 3/4
ARBOR VITAE      N/A     54  51  89 CALM      30.17R FOG
EAGLE RIVER    FOG       50  50 100 CALM      30.16R VSB<1/4
LAND O LAKES   CLEAR     49  49  99 CALM      30.17R
RHINELANDER    CLEAR     56  55  97 CALM      30.16R
PHILLIPS       CLEAR     57  56  96 CALM      30.16R
ANTIGO         PTCLDY    55  55  97 N6        30.15R
TOMAHAWK       CLEAR     55  54  95 CALM      30.17R
MERRILL        CLEAR     56  56  99 N5        30.15R
$$

WIZ013-073-230700-
NORTHEAST WISCONSIN

CITY           SKY/WX    TMP DP  RH WIND       PRES   REMARKS
IRON MOUNTAIN  CLEAR     57  54  89 NW6       30.11R
MARINETTE      CLEAR     61  54  77 N5        30.09R
OCONTO         CLEAR     61  56  83 N5        30.10R
$$

WIZ017-030-035>037-045-230700-
CENTRAL WISCONSIN

CITY           SKY/WX    TMP DP  RH WIND       PRES   REMARKS
MEDFORD        CLEAR     58  56  93 N3        30.16R
WAUSAU         PTCLDY    62  58  86 N6        30.13R
MOSINEE        PTCLDY    61  59  94 N5        30.14S
MARSHFIELD     CLEAR     64  58  80 N5        30.14R
WISC RAPIDS    CLEAR     65  58  78 NE8       30.14R
STEVENS POINT  PTCLDY    60  57  88 N3        30.14R
WAUPACA        PTCLDY    65  60  81 NE3       30.12R
SHAWANO        CLEAR     64  56  75 N6        30.11R
CLINTONVILLE   CLEAR     63  55  77 N6        30.11R
$$

WIZ038-039-048-051-230700-
FOX VALLEY

CITY           SKY/WX    TMP DP  RH WIND       PRES   REMARKS
NWS GREEN BAY  CLEAR     62  56  80 N6        30.10R
APPLETON       CLEAR     63  54  72 NE7       30.12R
OSHKOSH        PTCLDY    67  58  72 N10       30.11R
FOND DU LAC    PTCLDY    68  58  70 NE18G24   30.11R
$$

WIZ022-050-052-230700-
EAST CENTRAL WISCONSIN

CITY           SKY/WX    TMP DP  RH WIND       PRES   REMARKS
STURGEON BAY   CLEAR     64  54  68 N13G20    30.09R
MANITOWOC      CLEAR     64  56  75 N6        30.10R
SHEBOYGAN      PTCLDY    61  56  83 NE9       30.10R
$$

LMZ563-521-522-541>543-230700-
LAKESHORE

STATION/POSITION TIME  TEMP    WIND        PRES    VSBY  WAVE
                       AIR SEA DIR/SP/G                  HT/PER
                 (UTC) (F)     (DEG/KT/KT) (MB)    (MI)  (FT/S)
SHEBOYGAN LKSHOR 0600   58      10/ 14/ 15 1019.1R
KEWAUNEE LKSHORE 0600   59      10/  5/  5 1019.6R
NORTHPORT PIER   0600   64     350/ 19/ 22 1018.3S
N MID LAKE BUOY  0600   57 53  350/ 12/ 16 1017.4R         3/ 5
CHAMBERS ISLAND  0600   64     340/  9/ 11 1018.6S
MENOMINEE LKSHOR 0600   56     340/  8/  9 1019.5R
$$


USA.gov is the U.S. government's official web portal to all federal, state and local government web resources and services.